Kuchera_Ratio
12.5 12.4 12.4 12.6 12.7 12.7 12.7 11.9 9.5 8.1 7.2 6.8 4.1 4.0 3.5 3.4 1.0 0.0 0.0 0.0 0.0 0.0
12.8 12.9 12.7 12.3 12.5 12.4 11.8 9.7 9.1 9.0 8.9 7.8 5.2 4.2 4.3 4.8 3.6 0.1 0.0 0.0 0.0 0.0
13.0 12.7 12.7 12.5 12.9 12.6 12.2 11.4 11.1 10.4 9.3 8.8 6.3 5.1 4.7 4.7 2.1 1.8 0.2 0.0 0.0 0.0
14.1 13.3 13.0 13.1 12.8 12.7 12.2 11.8 11.6 10.0 9.4 9.2 8.0 6.0 6.2 6.0 3.6 2.6 1.4 0.3 0.0 0.0
13.9 13.9 14.8 13.9 13.3 12.6 13.0 12.1 11.5 10.9 10.7 9.5 8.1 6.8 7.0 6.5 4.8 4.7 4.5 1.8 1.0 0.0
14.3 14.8 14.9 14.8 13.7 13.3 13.3 12.9 12.4 11.6 11.9 11.0 8.9 7.9 7.1 6.2 5.6 4.6 3.9 3.2 2.0 0.7
14.2 14.4 14.4 14.0 14.1 13.7 13.6 13.9 13.2 12.5 11.9 10.8 9.2 7.7 7.3 6.7 6.1 5.0 3.6 2.2 1.2 0.0
13.2 13.4 13.8 13.9 14.0 14.1 13.9 13.5 13.3 12.8 12.2 11.8 10.5 7.6 7.8 6.8 6.6 6.1 5.1 3.0 1.3 0.4
13.1 13.0 13.4 13.4 13.5 13.9 14.4 14.4 14.2 13.8 13.3 12.9 10.4 6.6 4.4 4.2 6.1 5.9 5.5 5.1 2.5 0.0
13.2 13.5 13.2 12.9 13.3 14.1 14.7 14.7 14.9 14.4 13.6 13.7 12.6 7.0 4.7 3.4 4.6 6.1 5.9 4.6 3.3 1.4
13.6 13.9 13.2 13.2 13.6 14.0 14.3 14.8 14.8 14.1 13.7 13.9 12.5 6.7 4.5 3.1 5.2 6.2 5.7 4.0 3.0 2.6
13.9 14.1 13.5 13.5 13.3 13.2 13.7 14.0 14.3 13.8 13.8 14.5 13.5 7.4 5.2 4.5 7.5 7.1 5.6 3.1 2.2 1.6
13.4 13.2 13.3 13.0 12.8 12.4 12.7 13.3 13.0 13.2 12.9 11.8 12.0 7.1 4.7 5.0 7.1 7.9 6.4 4.1 2.5 0.0
13.0 13.0 12.7 12.6 12.0 12.5 12.9 13.0 13.5 13.0 12.6 12.3 11.4 11.1 4.9 2.9 5.0 5.5 5.4 5.1 3.9 1.5